When you browse on this site, cookies collect data to enhance your experience and personalize the content and advertising you see.
Visit our Privacy Policy to learn more. By continuing to use the site, you agree to this use of cookies and data.
  • In Switzerland
  • List of Countries
  • For 7 days
  • Water Temperature
  • Weather Map
  • Weather Widgets
  • user-avatar
    Login

    Hourly Weather Kabul

    Today, 17 November, Sunday

    Time Temperature Precipitation Wind Pressure Humidity
    00:00 +7°C° 0 mm 0 mps 611 mmHg 81%
    01:00 +7°C° 0 mm 0 mps 611 mmHg 81%
    02:00 +6°C° 0 mm 0 mps 611 mmHg 81%
    03:00 +6°C° 0 mm 0 mps 611 mmHg 83%
    04:00 +6°C° 0 mm 0 mps 611 mmHg 84%
    05:00 +5°C° 0 mm 0 mps 611 mmHg 85%
    06:00 +6°C° 0 mm 0 mps 611 mmHg 82%
    07:00 +6°C° 0 mm 0 mps 612 mmHg 80%
    08:00 +6°C° 0 mm 0 mps 612 mmHg 78%
    09:00 +7°C° 0 mm 0 mps 613 mmHg 71%
    10:00 +9°C° 0 mm 0 mps 613 mmHg 65%
    11:00 +10°C° 0 mm 0 mps 613 mmHg 58%
    12:00 +11°C° 0 mm 1 mps 613 mmHg 54%
    13:00 +12°C° 0 mm 1 mps 612 mmHg 50%
    14:00 +13°C° 0 mm 1 mps 612 mmHg 46%
    15:00 +12°C° 0 mm 1 mps 612 mmHg 47%
    16:00 +12°C° 0 mm 1 mps 612 mmHg 48%
    17:00 +11°C° 0 mm 0 mps 612 mmHg 49%
    18:00 +11°C° 0 mm 1 mps 612 mmHg 50%
    19:00 +11°C° 0 mm 1 mps 612 mmHg 52%
    20:00 +10°C° 0 mm 1 mps 612 mmHg 53%
    21:00 +10°C° 0 mm 1 mps 612 mmHg 53%
    22:00 +9°C° 0 mm 1 mps 612 mmHg 52%
    23:00 +9°C° 0 mm 1 mps 612 mmHg 52%

    Tomorrow, 18 November, Monday

    Time Temperature Precipitation Wind Pressure Humidity
    00:00 +8°C° 0 mm 1 mps 612 mmHg 52%
    01:00 +8°C° 0 mm 1 mps 611 mmHg 51%
    02:00 +7°C° 0 mm 1 mps 611 mmHg 51%
    03:00 +7°C° 0 mm 1 mps 611 mmHg 50%
    04:00 +6°C° 0 mm 1 mps 610 mmHg 49%
    05:00 +6°C° 0 mm 1 mps 610 mmHg 48%
    06:00 +6°C° 0 mm 1 mps 610 mmHg 46%
    07:00 +7°C° 0 mm 1 mps 611 mmHg 44%
    08:00 +7°C° 0 mm 1 mps 611 mmHg 42%
    09:00 +8°C° 0 mm 1 mps 611 mmHg 38%
    10:00 +10°C° 0 mm 1 mps 612 mmHg 33%
    11:00 +11°C° 0 mm 1 mps 612 mmHg 28%
    12:00 +12°C° 0 mm 1 mps 612 mmHg 26%
    13:00 +13°C° 0 mm 1 mps 612 mmHg 24%
    14:00 +14°C° 0 mm 1 mps 611 mmHg 21%
    15:00 +13°C° 0 mm 1 mps 611 mmHg 24%
    16:00 +12°C° 0 mm 1 mps 611 mmHg 27%
    17:00 +10°C° 0 mm 0 mps 610 mmHg 30%
    18:00 +11°C° 0 mm 1 mps 610 mmHg 31%
    19:00 +10°C° 0 mm 1 mps 610 mmHg 32%
    20:00 +9°C° 0 mm 1 mps 610 mmHg 33%
    21:00 +8°C° 0 mm 0 mps 609 mmHg 33%
    22:00 +7°C° 0 mm 0 mps 609 mmHg 33%
    23:00 +7°C° 0 mm 0 mps 609 mmHg 33%

    Day after tomorrow, 19 November, Tuesday

    Time Temperature Precipitation Wind Pressure Humidity
    00:00 +7°C° 0 mm 0 mps 608 mmHg 33%
    01:00 +6°C° 0 mm 0 mps 608 mmHg 34%
    02:00 +6°C° 0 mm 0 mps 608 mmHg 34%
    03:00 +6°C° 0 mm 0 mps 607 mmHg 34%
    04:00 +6°C° 0 mm 0 mps 607 mmHg 34%
    05:00 +5°C° 0 mm 0 mps 607 mmHg 34%
    06:00 +6°C° 0 mm 0 mps 607 mmHg 33%
    07:00 +6°C° 0 mm 0 mps 608 mmHg 33%
    08:00 +6°C° 0 mm 0 mps 608 mmHg 33%
    09:00 +9°C° 0 mm 1 mps 608 mmHg 28%
    10:00 +11°C° 0 mm 1 mps 609 mmHg 24%
    11:00 +12°C° 0 mm 1 mps 610 mmHg 19%
    12:00 +13°C° 0 mm 1 mps 609 mmHg 19%
    13:00 +13°C° 0 mm 1 mps 609 mmHg 18%
    14:00 +14°C° 0 mm 1 mps 609 mmHg 18%
    15:00 +13°C° 0 mm 1 mps 609 mmHg 21%
    16:00 +12°C° 0 mm 1 mps 608 mmHg 24%
    17:00 +12°C° 0 mm 1 mps 608 mmHg 27%
    18:00 +11°C° 0 mm 1 mps 608 mmHg 29%
    19:00 +11°C° 0 mm 1 mps 608 mmHg 31%
    20:00 +9°C° 0 mm 0 mps 608 mmHg 33%
    21:00 +9°C° 0 mm 0 mps 608 mmHg 33%
    22:00 +8°C° 0 mm 0 mps 608 mmHg 33%
    23:00 +8°C° 0 mm 0 mps 608 mmHg 33%

    20 November, Wednesday

    Time Temperature Precipitation Wind Pressure Humidity
    00:00 +8°C° 0 mm 0 mps 608 mmHg 33%
    01:00 +8°C° 0 mm 0 mps 608 mmHg 33%
    02:00 +7°C° 0 mm 0 mps 607 mmHg 32%
    03:00 +7°C° 0 mm 0 mps 607 mmHg 33%
    04:00 +6°C° 0 mm 0 mps 607 mmHg 33%
    05:00 +6°C° 0 mm 0 mps 606 mmHg 33%
    06:00 +6°C° 0 mm 0 mps 607 mmHg 33%
    07:00 +7°C° 0 mm 0 mps 607 mmHg 33%
    08:00 +7°C° 0 mm 0 mps 608 mmHg 33%
    09:00 +8°C° 0 mm 0 mps 608 mmHg 30%
    10:00 +10°C° 0 mm 1 mps 608 mmHg 27%
    11:00 +11°C° 0 mm 1 mps 609 mmHg 24%
    12:00 +10°C° 0.2 mm 1 mps 608 mmHg 34%
    13:00 +8°C° 0.2 mm 2 mps 607 mmHg 45%
    14:00 +7°C° 0.2 mm 2 mps 606 mmHg 56%
    15:00 +7°C° 0.1 mm 2 mps 606 mmHg 57%
    16:00 +7°C° 0.1 mm 2 mps 606 mmHg 58%
    17:00 +7°C° 0.1 mm 2 mps 606 mmHg 59%
    18:00 +6°C° 0.1 mm 2 mps 606 mmHg 61%
    19:00 +6°C° 0.1 mm 2 mps 607 mmHg 64%
    20:00 +6°C° 0.1 mm 2 mps 607 mmHg 67%
    21:00 +5°C° 0.2 mm 2 mps 607 mmHg 69%
    22:00 +5°C° 0.2 mm 2 mps 606 mmHg 71%
    23:00 +5°C° 0.2 mm 2 mps 606 mmHg 73%

    21 November, Thursday

    Time Temperature Precipitation Wind Pressure Humidity
    00:00 +4°C° 0.3 mm 2 mps 606 mmHg 79%
    01:00 +4°C° 0.3 mm 2 mps 605 mmHg 85%
    02:00 +4°C° 0.3 mm 1 mps 605 mmHg 91%
    03:00 +4°C° 0.9 mm 1 mps 605 mmHg 93%
    04:00 +4°C° 0.9 mm 1 mps 604 mmHg 94%
    05:00 +3°C° 0.9 mm 1 mps 604 mmHg 96%
    06:00 +3°C° 1.3 mm 1 mps 604 mmHg 96%
    07:00 +3°C° 1.3 mm 1 mps 605 mmHg 96%
    08:00 +3°C° 1.3 mm 1 mps 605 mmHg 97%
    09:00 +3°C° 1.2 mm 1 mps 605 mmHg 97%
    10:00 +3°C° 1.2 mm 1 mps 605 mmHg 97%
    11:00 +4°C° 1.2 mm 1 mps 605 mmHg 97%
    12:00 +4°C° 0.6 mm 1 mps 605 mmHg 97%
    13:00 +3°C° 0.6 mm 2 mps 605 mmHg 97%
    14:00 +3°C° 0.6 mm 2 mps 605 mmHg 97%
    15:00 +3°C° 0.5 mm 2 mps 605 mmHg 97%
    16:00 +3°C° 0.5 mm 2 mps 605 mmHg 97%
    17:00 +3°C° 0.5 mm 2 mps 606 mmHg 97%
    18:00 +3°C° 0.5 mm 2 mps 606 mmHg 96%
    19:00 +4°C° 0.5 mm 1 mps 607 mmHg 96%
    20:00 +4°C° 0.5 mm 1 mps 608 mmHg 96%
    21:00 +4°C° 0.1 mm 1 mps 608 mmHg 95%
    22:00 +4°C° 0.1 mm 1 mps 609 mmHg 93%
    23:00 +3°C° 0.1 mm 1 mps 609 mmHg 91%

    22 November, Friday

    Time Temperature Precipitation Wind Pressure Humidity
    00:00 +3°C° 0 mm 1 mps 609 mmHg 89%
    01:00 +3°C° 0 mm 1 mps 609 mmHg 86%
    02:00 +2°C° 0 mm 1 mps 609 mmHg 84%
    03:00 +2°C° 0 mm 1 mps 609 mmHg 81%
    04:00 +2°C° 0 mm 1 mps 609 mmHg 79%
    05:00 +1°C° 0 mm 1 mps 609 mmHg 77%
    06:00 +1°C° 0 mm 1 mps 609 mmHg 74%
    07:00 +1°C° 0 mm 1 mps 610 mmHg 71%
    08:00 +1°C° 0 mm 1 mps 610 mmHg 67%
    09:00 +2°C° 0 mm 1 mps 610 mmHg 65%
    10:00 +3°C° 0 mm 1 mps 610 mmHg 63%
    11:00 +4°C° 0 mm 1 mps 610 mmHg 60%
    12:00 +4°C° 0 mm 1 mps 610 mmHg 60%
    13:00 +5°C° 0 mm 1 mps 609 mmHg 59%
    14:00 +5°C° 0 mm 1 mps 609 mmHg 58%
    15:00 +5°C° 0 mm 1 mps 609 mmHg 59%
    16:00 +4°C° 0 mm 1 mps 609 mmHg 59%
    17:00 +4°C° 0 mm 1 mps 610 mmHg 60%
    18:00 +4°C° 0 mm 1 mps 610 mmHg 60%
    19:00 +3°C° 0 mm 1 mps 610 mmHg 59%
    20:00 +2°C° 0 mm 1 mps 610 mmHg 59%
    21:00 +2°C° 0 mm 1 mps 610 mmHg 58%
    22:00 +2°C° 0 mm 1 mps 610 mmHg 58%
    23:00 +1°C° 0 mm 1 mps 610 mmHg 57%
    Show more